Weather History for KEST - September, 2014

Change the Weather History Date:

Thursday, September 4, 2014

  Actual Average Record
Temperature  
Mean Temperature 72 °F 65 °F  
Max Temperature 83 °F 77 °F 93 °F (1960)
Min Temperature 61 °F 53 °F 35 °F (1974)
Degree Days  
Heating Degree Days 0 3  
Month to date heating degree days 0 9  
Since 1 July heating degree days 32 41  
Cooling Degree Days 7 3  
Month to date cooling degree days 12 12  
Year to date cooling degree days 421 552  
Growing Degree Days 25 (Base 50)    
Moisture  
Dew Point 69 °F    
Average Humidity 84    
Maximum Humidity 100    
Minimum Humidity 68    
Precipitation  
Precipitation 0.00 in 0.10 in 0.93 in (1989)
Month to date precipitation 0.00 0.39  
Sea Level Pressure  
Sea Level Pressure 29.75 in    
Wind  
Wind Speed 11 mph (WSW)    
Max Wind Speed 20 mph    
Max Gust Speed 28 mph    
Visibility 10 miles    
Events      
T = Trace of Precipitation, MM = Missing Value Source: NWS Daily Summary

Daily Weather History Graph

Daily Weather History Graph

Search for Another Location

Airport or City:

Trip Planner

Search our weather history database for the weather conditions in past years. The results will help you decide how hot, cold, wet, or windy it might be!

Date:

Astronomy

Sep. 04, 2014 Rise Set
Actual Time 6:46 AM CDT 7:48 PM CDT
Civil Twilight 6:17 AM CDT 8:17 PM CDT
Nautical Twilight 5:42 AM CDT 8:52 PM CDT
Astronomical Twilight 5:05 AM CDT 9:29 PM CDT
Moon 4:32 PM CDT (9/4) 1:32 AM CDT (9/4)
Length of Visible Light 14h 00m
Length of Day
13h 02m
Waxing Gibbous, 74% of the Moon is Illuminated
Sep 4
Waxing Gibbous
Sep 8
Full
Sep 15
Last Quarter
Sep 24
New
Oct 1
First Quarter

Hourly Weather History & Observations

Time (CDT) Temp. Heat Index Dew Point Humidity Pressure Visibility Wind Dir Wind Speed Gust Speed Precip Events Conditions
12:52 AM 70.0 °F - 68.0 °F 93% 29.68 in 10.0 mi South 12.7 mph - N/A   Clear
1:42 AM 70.0 °F - 69.1 °F 97% 29.70 in 10.0 mi South 10.4 mph - N/A   Partly Cloudy
1:52 AM 69.1 °F - 69.1 °F 100% 29.68 in 10.0 mi South 11.5 mph - N/A   Partly Cloudy
2:52 AM 70.0 °F - 69.1 °F 97% 29.66 in 9.0 mi South 12.7 mph - N/A   Clear
4:52 AM 70.0 °F - 70.0 °F 100% 29.62 in 6.0 mi South 11.5 mph - N/A   Clear
5:52 AM 70.0 °F - 69.1 °F 97% 29.64 in 5.0 mi South 8.1 mph - N/A   Clear
7:52 AM 71.1 °F - 70.0 °F 96% 29.65 in 8.0 mi South 10.4 mph - N/A   Clear
8:52 AM 73.9 °F - 71.1 °F 91% 29.66 in 10.0 mi South 12.7 mph - N/A   Clear
9:52 AM 78.1 °F - 71.1 °F 79% 29.67 in 10.0 mi SSW 15.0 mph - N/A   Clear
10:52 AM 81.0 °F 84.9 °F 71.1 °F 72% 29.67 in 10.0 mi SSW 15.0 mph 27.6 mph N/A   Clear
12:52 PM 82.9 °F 87.5 °F 71.1 °F 67% 29.70 in 10.0 mi WSW 16.1 mph 21.9 mph N/A   Mostly Cloudy
1:12 PM 82.0 °F 86.7 °F 72.0 °F 71% 29.74 in 10.0 mi WSW 12.7 mph 21.9 mph N/A   Mostly Cloudy
1:52 PM 82.0 °F 86.7 °F 72.0 °F 71% 29.73 in 10.0 mi SW 11.5 mph - N/A   Scattered Clouds
2:52 PM 81.0 °F 85.2 °F 72.0 °F 74% 29.72 in 10.0 mi SSW 9.2 mph - N/A   Mostly Cloudy
4:50 PM 78.8 °F - 69.8 °F 74% 29.79 in 10.0 mi WSW 12.7 mph - N/A   Mostly Cloudy
4:52 PM 80.1 °F 83.6 °F 71.1 °F 74% 29.76 in 10.0 mi WSW 9.2 mph - N/A   Mostly Cloudy
5:06 PM 80.1 °F 83.2 °F 70.0 °F 71% 29.79 in 10.0 mi WSW 13.8 mph 20.7 mph N/A   Scattered Clouds
5:42 PM 78.1 °F - 71.1 °F 79% 29.80 in 10.0 mi WNW 9.2 mph - N/A   Mostly Cloudy
5:52 PM 77.0 °F - 71.1 °F 82% 29.78 in 10.0 mi WNW 5.8 mph - N/A   Overcast
6:52 PM 75.9 °F - 70.0 °F 82% 29.82 in 10.0 mi WNW 10.4 mph 20.7 mph N/A   Overcast
7:52 PM 73.0 °F - 69.1 °F 87% 29.83 in 10.0 mi WNW 9.2 mph - N/A   Clear
8:31 PM 72.0 °F - 69.1 °F 91% 29.88 in 10.0 mi WNW 5.8 mph - N/A   Mostly Cloudy
8:52 PM 72.0 °F - 68.0 °F 87% 29.87 in 10.0 mi NW 8.1 mph - N/A   Overcast
9:11 PM 72.0 °F - 66.9 °F 84% 29.90 in 10.0 mi NW 4.6 mph - N/A   Overcast
10:52 PM 68.0 °F - 57.9 °F 70% 29.92 in 10.0 mi NNW 10.4 mph - N/A   Clear
11:52 PM 64.9 °F - 55.0 °F 70% 29.94 in 10.0 mi NNW 15.0 mph 23.0 mph N/A   Clear